Weather in Drozdovo

Russia / Kaluga Oblast     55°07′00″N   36°42′47″E
temp.,
°C
wind,
m/s
gust,
m/s
humid.,
%
clouds,
%
prec.,
mm/h
press.,
hPa
HPBL,
m
25 june, sat
sat2500:00+14ne22838 0.0 101725
03:00+13ne11871 0.0 101811
06:00+16nne14825 0.0 1018117
09:00+22ne24565 0.0 1019715
12:00+26ene34455 0.0 10191905
15:00+27ene344119 0.0 10182162
18:00+26ene24520 0.0 10181599
21:00+20nw00745 0.0 101911
26 june, sun
sun2600:00+17ne11830 0.0 102111
03:00+16ne00880 0.0 102211
06:00+18nne11815 0.0 102247
09:00+25n12579 0.0 1022513
12:00+28n22420 0.0 10221889
15:00+30n133848 0.0 10212403
18:00+28nw2354100 0.0 1021591
21:00+23w1271100 0.0 102123
27 june, mon
mon2700:00+21wnw227951 0.0 102231
03:00+18wnw22885 0.0 102232
06:00+20w25800 0.0 1022130
09:00+26nw34590 0.0 1021492
12:00+30nw45420 0.0 10211783
15:00+31nw553621 0.0 10202561
18:00+29nw47465 0.0 1019989
21:00+22nnw22781 0.0 102024
28 june, tue
tue2800:00+19nnw11780 0.0 102111
03:00+18n11785 0.0 102111
06:00+19nne148036 0.0 1021126
09:00+24ene45632 0.0 1022758
12:00+26ene4451100 0.1 10221417
15:00+26ene344261 0.1 10221838
18:00+24ene344876 0.0 1022903
21:00+17ene226931 0.0 102420
29 june, wed
wed2900:00+13ene25745 0.0 1024101
03:00+11ene22764 0.0 102532
06:00+12ene26710 0.0 1026165
09:00+18ene35460 0.0 1025901
12:00+21ene44350 0.0 10251736
15:00+22ene34330 0.0 10252017
18:00+21e23400 0.0 10241756
21:00+14se11654 0.0 102510